SKB2209 KCMH-KFLL

Flight info

Callsign SKB2209
Flight time 2h 20m
Altitude 34000
Route POBSE OHIOS HVQ Q147 BURGG/N0449F350 QUIWE/N0452F360 Q93 FISHO/N0451F350 Q93 GURGE/N0453F360 Q93 PRMUS CUUDA3
Aircraft A321/M-SDE3FGHIRWY/LB1

Departure

Time 2026-05-04 02:49
Airport John Glenn Columbus International Airport (KCMH)

Arrival

Time 2026-05-04 05:09
Airport Fort Lauderdale Hollywood International Airport (KFLL)
Time Latitude Longitude Altitude Speed Heading
2026-05-04 02:22 39.99728 -82.88271 825 ft 0 kts 27°
2026-05-04 02:36 39.99709 -82.88284 825 ft 4 kts 27°
2026-05-04 02:37 39.99685 -82.88301 821 ft 4 kts 27°
2026-05-04 02:37 39.99671 -82.88311 825 ft 0 kts 27°
2026-05-04 02:41 39.99672 -82.88310 825 ft 1 kts 31°
2026-05-04 02:41 39.99670 -82.88301 825 ft 1 kts 105°
2026-05-04 02:42 39.99645 -82.88296 823 ft 7 kts 189°
2026-05-04 02:42 39.99574 -82.88312 823 ft 12 kts 186°
2026-05-04 02:42 39.99514 -82.88376 825 ft 12 kts 266°
2026-05-04 02:42 39.99519 -82.88497 825 ft 15 kts 274°
2026-05-04 02:43 39.99527 -82.88645 825 ft 20 kts 274°
2026-05-04 02:43 39.99538 -82.88839 825 ft 22 kts 274°
2026-05-04 02:43 39.99549 -82.89035 825 ft 22 kts 274°
2026-05-04 02:43 39.99513 -82.89169 825 ft 15 kts 199°
2026-05-04 02:44 39.99499 -82.89173 825 ft 0 kts 195°
2026-05-04 02:44 39.99488 -82.89177 823 ft 7 kts 195°
2026-05-04 02:44 39.99448 -82.89262 825 ft 17 kts 271°
2026-05-04 02:44 39.99460 -82.89456 825 ft 26 kts 274°
2026-05-04 02:45 39.99476 -82.89727 825 ft 31 kts 274°
2026-05-04 02:45 39.99491 -82.90007 825 ft 31 kts 274°
2026-05-04 02:45 39.99507 -82.90287 825 ft 31 kts 274°
2026-05-04 02:45 39.99521 -82.90553 822 ft 24 kts 274°
2026-05-04 02:46 39.99529 -82.90708 825 ft 10 kts 266°
2026-05-04 02:46 39.99479 -82.90767 822 ft 11 kts 191°
2026-05-04 02:46 39.99448 -82.90772 825 ft 0 kts 185°
2026-05-04 02:46 39.99432 -82.90773 823 ft 8 kts 185°
2026-05-04 02:47 39.99356 -82.90734 825 ft 16 kts 104°
2026-05-04 02:47 39.99354 -82.90697 825 ft 0 kts 93°
2026-05-04 02:48 39.99345 -82.90525 824 ft 54 kts 94°
2026-05-04 02:48 39.99299 -82.89732 825 ft 119 kts 94°
2026-05-04 02:48 39.99225 -82.88418 843 ft 167 kts 93°
2026-05-04 02:49 39.99135 -82.86910 1458 ft 164 kts 96°
2026-05-04 02:49 39.99050 -82.85403 2053 ft 170 kts 95°
2026-05-04 02:49 39.98963 -82.83856 2531 ft 178 kts 95°
2026-05-04 02:49 39.98888 -82.82146 2718 ft 200 kts 95°
2026-05-04 02:50 39.98856 -82.80233 2841 ft 223 kts 94°
2026-05-04 02:50 39.98839 -82.78102 2973 ft 247 kts 93°
2026-05-04 02:50 39.98810 -82.75750 3239 ft 270 kts 93°
2026-05-04 02:50 39.98775 -82.73253 3836 ft 278 kts 94°
2026-05-04 02:51 39.98742 -82.70705 4532 ft 283 kts 94°
2026-05-04 02:51 39.98709 -82.68105 5223 ft 288 kts 93°
2026-05-04 02:51 39.98679 -82.65469 5892 ft 293 kts 94°
2026-05-04 02:51 39.98650 -82.62789 6574 ft 298 kts 93°
2026-05-04 02:52 39.98616 -82.60099 7269 ft 302 kts 93°
2026-05-04 02:52 39.98572 -82.57343 7963 ft 305 kts 94°
2026-05-04 02:52 39.98524 -82.54558 8622 ft 309 kts 93°
2026-05-04 02:52 39.98428 -82.51747 9297 ft 311 kts 101°
2026-05-04 02:53 39.97755 -82.49086 9912 ft 308 kts 124°
2026-05-04 02:53 39.96401 -82.46957 10468 ft 308 kts 144°
2026-05-04 02:53 39.94495 -82.45593 10606 ft 320 kts 169°
2026-05-04 02:53 39.92254 -82.45321 10756 ft 329 kts 191°
2026-05-04 02:54 39.89959 -82.45802 11200 ft 339 kts 193°
2026-05-04 02:54 39.87616 -82.46302 11805 ft 342 kts 193°
2026-05-04 02:54 39.85270 -82.46790 12344 ft 348 kts 193°
2026-05-04 02:54 39.82858 -82.47283 12903 ft 353 kts 193°
2026-05-04 02:55 39.77951 -82.48280 14032 ft 360 kts 193°
2026-05-04 02:55 39.75454 -82.48796 14588 ft 364 kts 193°
2026-05-04 02:55 39.72938 -82.49312 15127 ft 368 kts 193°
2026-05-04 02:56 39.70397 -82.49832 15683 ft 371 kts 193°
2026-05-04 02:56 39.67824 -82.50361 16221 ft 375 kts 194°
2026-05-04 02:56 39.65262 -82.50885 16766 ft 378 kts 194°
2026-05-04 02:56 39.62647 -82.51420 17292 ft 382 kts 194°
2026-05-04 02:57 39.60001 -82.51960 17811 ft 386 kts 194°
2026-05-04 02:57 39.57338 -82.52502 18311 ft 389 kts 194°
2026-05-04 02:57 39.54655 -82.53047 18834 ft 391 kts 194°
2026-05-04 02:57 39.51955 -82.53599 19354 ft 393 kts 195°
2026-05-04 02:58 39.49277 -82.54147 19879 ft 396 kts 195°
2026-05-04 02:58 39.46544 -82.54707 20377 ft 398 kts 195°
2026-05-04 02:58 39.43800 -82.55268 20906 ft 400 kts 195°
2026-05-04 02:58 39.41036 -82.55832 21400 ft 402 kts 196°
2026-05-04 02:59 39.38259 -82.56396 21879 ft 405 kts 196°
2026-05-04 02:59 39.35458 -82.56961 22348 ft 407 kts 196°
2026-05-04 02:59 39.32689 -82.57522 22777 ft 409 kts 196°
2026-05-04 02:59 39.29864 -82.58099 23202 ft 411 kts 197°
2026-05-04 03:00 39.27032 -82.58676 23637 ft 413 kts 197°
2026-05-04 03:00 39.24182 -82.59254 24039 ft 416 kts 197°
2026-05-04 03:00 39.21317 -82.59832 24425 ft 418 kts 197°
2026-05-04 03:00 39.18430 -82.60417 24806 ft 420 kts 197°
2026-05-04 03:01 39.15534 -82.61003 25176 ft 422 kts 197°
2026-05-04 03:01 39.12619 -82.61591 25545 ft 424 kts 197°
2026-05-04 03:01 39.09693 -82.62180 25896 ft 426 kts 197°
2026-05-04 03:01 39.06750 -82.62772 26235 ft 429 kts 197°
2026-05-04 03:02 39.03826 -82.63360 26563 ft 431 kts 197°
2026-05-04 03:02 39.00851 -82.63957 26893 ft 433 kts 197°
2026-05-04 03:02 38.97864 -82.64554 27215 ft 435 kts 197°
2026-05-04 03:02 38.94864 -82.65153 27540 ft 437 kts 197°
2026-05-04 03:03 38.91850 -82.65754 27854 ft 439 kts 197°
2026-05-04 03:03 38.88767 -82.66067 28140 ft 452 kts 186°
2026-05-04 03:03 38.85582 -82.65549 28448 ft 467 kts 173°
2026-05-04 03:03 38.82495 -82.64115 28824 ft 479 kts 159°
2026-05-04 03:04 38.79684 -82.61816 29112 ft 492 kts 146°
2026-05-04 03:04 38.77252 -82.58656 29358 ft 502 kts 131°
2026-05-04 03:04 38.75276 -82.54924 29613 ft 507 kts 126°
2026-05-04 03:04 38.73346 -82.51133 29890 ft 509 kts 126°
2026-05-04 03:05 38.71399 -82.47322 30143 ft 511 kts 127°
2026-05-04 03:05 38.69446 -82.43507 30405 ft 513 kts 127°
2026-05-04 03:05 38.67481 -82.39678 30684 ft 515 kts 127°
2026-05-04 03:05 38.65513 -82.35845 31067 ft 513 kts 127°
2026-05-04 03:06 38.63552 -82.32034 31434 ft 512 kts 127°
2026-05-04 03:06 38.61616 -82.28283 31794 ft 511 kts 127°
2026-05-04 03:06 38.59657 -82.24490 32138 ft 510 kts 127°
2026-05-04 03:06 38.57704 -82.20706 32492 ft 509 kts 127°
2026-05-04 03:07 38.55758 -82.16934 32822 ft 508 kts 128°
2026-05-04 03:07 38.53811 -82.13170 33148 ft 506 kts 128°
2026-05-04 03:07 38.51867 -82.09419 33472 ft 505 kts 128°
2026-05-04 03:07 38.49929 -82.05681 33787 ft 504 kts 128°
2026-05-04 03:08 38.47993 -82.01946 34010 ft 504 kts 128°
2026-05-04 03:08 38.44161 -81.94581 34072 ft 497 kts 128°
2026-05-04 03:09 38.40281 -81.87303 34072 ft 491 kts 135°
2026-05-04 03:09 38.35336 -81.81571 34079 ft 472 kts 156°
2026-05-04 03:10 38.29502 -81.78343 34081 ft 451 kts 175°
2026-05-04 03:10 38.23420 -81.77561 34085 ft 431 kts 191°
2026-05-04 03:11 38.17409 -81.77866 34086 ft 432 kts 191°
2026-05-04 03:11 38.11392 -81.78159 34091 ft 432 kts 191°
2026-05-04 03:12 38.05406 -81.78452 34097 ft 433 kts 191°
2026-05-04 03:12 37.99384 -81.78743 34101 ft 433 kts 191°
2026-05-04 03:13 37.93362 -81.79044 34103 ft 433 kts 191°
2026-05-04 03:13 37.87335 -81.79336 34109 ft 433 kts 191°
2026-05-04 03:14 37.81311 -81.79629 34107 ft 432 kts 191°
2026-05-04 03:14 37.75297 -81.79927 34111 ft 432 kts 191°
2026-05-04 03:15 37.69317 -81.80213 34110 ft 431 kts 191°
2026-05-04 03:15 37.63311 -81.80505 34117 ft 431 kts 191°
2026-05-04 03:16 37.57312 -81.80795 34122 ft 430 kts 191°
2026-05-04 03:16 37.51321 -81.81086 34121 ft 430 kts 191°
2026-05-04 03:17 37.45336 -81.81374 34124 ft 431 kts 191°
2026-05-04 03:17 37.39372 -81.81659 34127 ft 431 kts 191°
2026-05-04 03:18 37.33381 -81.81946 34128 ft 431 kts 191°
2026-05-04 03:18 37.27384 -81.82235 34131 ft 431 kts 191°
2026-05-04 03:19 37.21386 -81.82523 34133 ft 431 kts 191°
2026-05-04 03:19 37.15426 -81.82812 34133 ft 431 kts 191°
2026-05-04 03:20 37.09419 -81.83105 34130 ft 431 kts 190°
2026-05-04 03:20 37.04427 -81.83343 34130 ft 431 kts 190°
2026-05-04 03:21 36.98422 -81.83634 34129 ft 432 kts 190°
2026-05-04 03:21 36.92423 -81.83924 34129 ft 431 kts 190°
2026-05-04 03:22 36.86417 -81.84201 34126 ft 431 kts 190°
2026-05-04 03:22 36.80411 -81.84476 34126 ft 432 kts 190°
2026-05-04 03:23 36.74436 -81.84756 34126 ft 432 kts 190°
2026-05-04 03:23 36.68419 -81.85040 34128 ft 432 kts 190°
2026-05-04 03:24 36.62402 -81.85338 34128 ft 432 kts 190°
2026-05-04 03:24 36.56391 -81.85634 34126 ft 432 kts 189°
2026-05-04 03:25 36.50367 -81.85918 34124 ft 433 kts 189°
2026-05-04 03:25 36.44383 -81.86189 34131 ft 433 kts 189°
2026-05-04 03:26 36.38352 -81.86457 34137 ft 433 kts 189°
2026-05-04 03:26 36.32311 -81.86744 34142 ft 434 kts 189°
2026-05-04 03:27 36.26282 -81.87030 34143 ft 434 kts 189°
2026-05-04 03:27 36.20230 -81.87312 34151 ft 434 kts 189°
2026-05-04 03:28 36.14227 -81.87599 34153 ft 434 kts 189°
2026-05-04 03:28 36.08194 -81.87877 34151 ft 434 kts 189°
2026-05-04 03:29 36.02147 -81.88157 34154 ft 434 kts 189°
2026-05-04 03:29 35.96098 -81.88438 34156 ft 434 kts 189°
2026-05-04 03:30 35.90056 -81.88717 34155 ft 434 kts 189°
2026-05-04 03:30 35.84007 -81.89000 34157 ft 434 kts 189°
2026-05-04 03:31 35.78007 -81.89280 34157 ft 434 kts 189°
2026-05-04 03:31 35.71970 -81.89550 34157 ft 434 kts 189°
2026-05-04 03:32 35.65930 -81.89825 34159 ft 434 kts 189°
2026-05-04 03:32 35.59927 -81.90101 34156 ft 432 kts 189°
2026-05-04 03:33 35.53922 -81.90382 34146 ft 432 kts 189°
2026-05-04 03:33 35.47906 -81.90667 34150 ft 432 kts 189°
2026-05-04 03:34 35.41889 -81.90942 34149 ft 431 kts 189°
2026-05-04 03:34 35.35888 -81.91208 34151 ft 430 kts 189°
2026-05-04 03:35 35.29940 -81.91482 34151 ft 429 kts 189°
2026-05-04 03:35 35.23968 -81.91750 34152 ft 428 kts 189°
2026-05-04 03:36 35.18021 -81.92019 34147 ft 427 kts 189°
2026-05-04 03:36 35.12079 -81.92292 34143 ft 426 kts 189°
2026-05-04 03:37 35.06144 -81.92560 34143 ft 427 kts 187°
2026-05-04 03:37 35.00225 -81.91464 34141 ft 443 kts 169°
2026-05-04 03:38 34.94344 -81.89118 34142 ft 443 kts 169°
2026-05-04 03:38 34.88481 -81.86780 34142 ft 442 kts 169°
2026-05-04 03:39 34.82672 -81.84480 34152 ft 441 kts 169°
2026-05-04 03:39 34.76830 -81.82174 34158 ft 441 kts 169°
2026-05-04 03:40 34.70999 -81.79875 34165 ft 440 kts 169°
2026-05-04 03:40 34.65180 -81.77580 34170 ft 439 kts 170°
2026-05-04 03:41 34.59371 -81.75297 34175 ft 438 kts 169°
2026-05-04 03:41 34.53576 -81.73018 34173 ft 438 kts 169°
2026-05-04 03:42 34.47779 -81.70736 34169 ft 437 kts 170°
2026-05-04 03:42 34.42032 -81.68486 34167 ft 436 kts 170°
2026-05-04 03:43 34.36247 -81.66222 34168 ft 436 kts 170°
2026-05-04 03:43 34.30468 -81.63963 34175 ft 436 kts 170°
2026-05-04 03:44 34.24696 -81.61713 34173 ft 435 kts 170°
2026-05-04 03:44 34.18979 -81.59482 34169 ft 434 kts 170°
2026-05-04 03:45 34.13229 -81.57237 34166 ft 434 kts 170°
2026-05-04 03:45 34.07478 -81.55004 34163 ft 434 kts 170°
2026-05-04 03:46 34.01713 -81.52766 34161 ft 434 kts 170°
2026-05-04 03:46 33.95953 -81.50572 34160 ft 430 kts 174°
2026-05-04 03:47 33.90134 -81.49539 34162 ft 420 kts 181°
2026-05-04 03:47 33.84357 -81.48764 34163 ft 420 kts 181°
2026-05-04 03:48 33.78536 -81.47983 34161 ft 420 kts 181°
2026-05-04 03:48 33.72724 -81.47203 34160 ft 420 kts 181°
2026-05-04 03:49 33.66950 -81.46418 34163 ft 419 kts 181°
2026-05-04 03:49 33.61157 -81.45637 34164 ft 419 kts 181°
2026-05-04 03:50 33.55326 -81.44866 34163 ft 418 kts 181°
2026-05-04 03:50 33.49575 -81.44103 34164 ft 418 kts 181°
2026-05-04 03:51 33.43790 -81.43324 34166 ft 418 kts 181°
2026-05-04 03:51 33.38018 -81.42549 34166 ft 417 kts 182°
2026-05-04 03:52 33.32247 -81.41785 34170 ft 417 kts 182°
2026-05-04 03:52 33.26489 -81.40848 34170 ft 422 kts 176°
2026-05-04 03:53 33.20738 -81.39384 34172 ft 422 kts 176°
2026-05-04 03:53 33.15015 -81.37931 34173 ft 421 kts 176°
2026-05-04 03:54 33.09288 -81.36478 34174 ft 421 kts 176°
2026-05-04 03:54 33.03551 -81.35019 34173 ft 420 kts 176°
2026-05-04 03:55 32.97831 -81.33573 34175 ft 420 kts 176°
2026-05-04 03:55 32.92117 -81.32132 34176 ft 420 kts 177°
2026-05-04 03:56 32.86405 -81.30697 34176 ft 419 kts 177°
2026-05-04 03:56 32.80707 -81.29263 34172 ft 418 kts 177°
2026-05-04 03:57 32.75054 -81.27839 34171 ft 418 kts 177°
2026-05-04 03:57 32.69363 -81.26405 34178 ft 418 kts 177°
2026-05-04 03:58 32.60833 -81.24268 34179 ft 417 kts 177°
2026-05-04 03:58 32.55152 -81.22846 34181 ft 417 kts 177°
2026-05-04 03:59 32.49472 -81.21471 34177 ft 413 kts 181°
2026-05-04 03:59 32.43854 -81.21384 34181 ft 401 kts 191°
2026-05-04 04:00 32.38272 -81.21677 34182 ft 402 kts 190°
2026-05-04 04:00 32.32715 -81.21943 34186 ft 402 kts 190°
2026-05-04 04:01 32.27123 -81.22212 34190 ft 402 kts 190°
2026-05-04 04:01 32.21539 -81.22489 34189 ft 401 kts 190°
2026-05-04 04:02 32.15967 -81.22771 34192 ft 400 kts 190°
2026-05-04 04:02 32.10430 -81.23049 34191 ft 400 kts 190°
2026-05-04 04:03 32.04869 -81.23325 34184 ft 399 kts 190°
2026-05-04 04:03 31.99309 -81.23601 34172 ft 399 kts 191°
2026-05-04 04:04 31.93711 -81.23431 34164 ft 407 kts 183°
2026-05-04 04:04 31.88110 -81.22719 34160 ft 407 kts 183°
2026-05-04 04:05 31.82480 -81.22010 34159 ft 407 kts 183°
2026-05-04 04:05 31.76838 -81.21302 34160 ft 407 kts 183°
2026-05-04 04:06 31.71198 -81.20599 34161 ft 406 kts 183°
2026-05-04 04:06 31.66518 -81.20020 34162 ft 406 kts 183°
2026-05-04 04:07 31.60884 -81.19321 34164 ft 406 kts 183°
2026-05-04 04:07 31.55261 -81.18623 34169 ft 406 kts 183°
2026-05-04 04:08 31.49629 -81.17923 34174 ft 406 kts 183°
2026-05-04 04:08 31.44041 -81.17228 34176 ft 405 kts 183°
2026-05-04 04:09 31.38426 -81.16525 34175 ft 405 kts 184°
2026-05-04 04:09 31.32824 -81.15834 34169 ft 405 kts 184°
2026-05-04 04:10 31.27210 -81.15163 34168 ft 405 kts 184°
2026-05-04 04:10 31.21596 -81.14493 34169 ft 405 kts 184°
2026-05-04 04:11 31.16021 -81.13820 34171 ft 405 kts 184°
2026-05-04 04:11 31.10412 -81.13138 34170 ft 405 kts 184°
2026-05-04 04:12 31.04807 -81.12465 34167 ft 404 kts 184°
2026-05-04 04:12 30.99204 -81.11787 34164 ft 404 kts 184°
2026-05-04 04:13 30.93635 -81.11114 34168 ft 404 kts 184°
2026-05-04 04:13 30.88036 -81.10443 34171 ft 404 kts 184°
2026-05-04 04:14 30.82433 -81.09770 34174 ft 404 kts 184°
2026-05-04 04:14 30.76828 -81.09102 34173 ft 405 kts 184°
2026-05-04 04:15 30.71221 -81.08436 34174 ft 405 kts 184°
2026-05-04 04:15 30.65651 -81.07767 34177 ft 405 kts 184°
2026-05-04 04:16 30.60091 -81.07549 34177 ft 394 kts 192°
2026-05-04 04:16 30.54611 -81.07885 34177 ft 394 kts 192°
2026-05-04 04:17 30.49135 -81.08221 34178 ft 394 kts 192°
2026-05-04 04:17 30.43682 -81.08554 34182 ft 394 kts 192°
2026-05-04 04:18 30.38201 -81.08884 34183 ft 394 kts 192°
2026-05-04 04:18 30.32727 -81.09208 34182 ft 393 kts 192°
2026-05-04 04:19 30.27260 -81.09532 34178 ft 393 kts 193°
2026-05-04 04:19 30.21793 -81.09856 34171 ft 393 kts 193°
2026-05-04 04:20 30.16324 -81.10191 34167 ft 393 kts 193°
2026-05-04 04:20 30.10886 -81.10517 34166 ft 394 kts 193°
2026-05-04 04:21 30.05408 -81.10838 34168 ft 394 kts 192°
2026-05-04 04:21 29.99926 -81.11164 34169 ft 394 kts 193°
2026-05-04 04:22 29.94438 -81.11496 34175 ft 394 kts 193°
2026-05-04 04:22 29.88981 -81.11821 34176 ft 393 kts 193°
2026-05-04 04:23 29.83488 -81.12015 34176 ft 401 kts 186°
2026-05-04 04:23 29.80690 -81.11502 34174 ft 416 kts 176°
2026-05-04 04:23 29.77911 -81.10359 34171 ft 428 kts 168°
2026-05-04 04:24 29.72466 -81.07656 34168 ft 428 kts 168°
2026-05-04 04:24 29.66987 -81.04958 34164 ft 428 kts 169°
2026-05-04 04:25 29.61502 -81.02280 34162 ft 428 kts 169°
2026-05-04 04:25 29.56020 -80.99602 34164 ft 427 kts 169°
2026-05-04 04:26 29.50587 -80.96957 34161 ft 426 kts 169°
2026-05-04 04:26 29.45125 -80.94286 34159 ft 426 kts 169°
2026-05-04 04:27 29.39663 -80.91623 34159 ft 426 kts 169°
2026-05-04 04:27 29.34206 -80.88971 34162 ft 425 kts 169°
2026-05-04 04:28 29.28757 -80.86324 34162 ft 424 kts 169°
2026-05-04 04:28 29.23349 -80.83692 34160 ft 424 kts 169°
2026-05-04 04:29 29.17901 -80.81051 34153 ft 425 kts 169°
2026-05-04 04:29 29.12449 -80.78421 34148 ft 425 kts 169°
2026-05-04 04:30 29.07035 -80.75807 34151 ft 424 kts 169°
2026-05-04 04:30 29.01593 -80.73172 34148 ft 424 kts 169°
2026-05-04 04:31 28.96154 -80.70541 34145 ft 423 kts 170°
2026-05-04 04:31 28.90701 -80.68045 34137 ft 421 kts 171°
2026-05-04 04:32 28.85267 -80.65667 34137 ft 420 kts 171°
2026-05-04 04:32 28.79820 -80.63264 34128 ft 419 kts 171°
2026-05-04 04:33 28.74381 -80.60834 34123 ft 420 kts 171°
2026-05-04 04:33 28.68950 -80.58395 34121 ft 419 kts 171°
2026-05-04 04:34 28.63546 -80.55987 34121 ft 418 kts 171°
2026-05-04 04:34 28.58120 -80.53578 34115 ft 417 kts 171°
2026-05-04 04:35 28.52700 -80.51169 34111 ft 417 kts 171°
2026-05-04 04:35 28.47287 -80.48764 34108 ft 417 kts 171°
2026-05-04 04:36 28.41917 -80.46383 34106 ft 416 kts 171°
2026-05-04 04:36 28.36515 -80.43991 34104 ft 416 kts 171°
2026-05-04 04:37 28.25730 -80.39216 34102 ft 415 kts 171°
2026-05-04 04:38 28.20378 -80.36851 34098 ft 414 kts 171°
2026-05-04 04:38 28.15001 -80.34481 34092 ft 414 kts 171°
2026-05-04 04:39 28.09634 -80.32124 34090 ft 413 kts 171°
2026-05-04 04:39 28.04246 -80.29914 34089 ft 409 kts 173°
2026-05-04 04:40 27.98847 -80.27860 34099 ft 409 kts 174°
2026-05-04 04:40 27.93461 -80.25802 34099 ft 409 kts 173°
2026-05-04 04:41 27.88104 -80.23715 34101 ft 409 kts 173°
2026-05-04 04:41 27.82715 -80.21606 33686 ft 410 kts 173°
2026-05-04 04:42 27.80022 -80.20552 33194 ft 407 kts 173°
2026-05-04 04:42 27.77358 -80.19508 32749 ft 403 kts 173°
2026-05-04 04:42 27.74722 -80.18477 32298 ft 399 kts 173°
2026-05-04 04:42 27.72109 -80.17459 31854 ft 395 kts 172°
2026-05-04 04:43 27.69528 -80.16454 31416 ft 390 kts 172°
2026-05-04 04:43 27.66970 -80.15458 30979 ft 387 kts 172°
2026-05-04 04:43 27.64437 -80.14472 30541 ft 383 kts 172°
2026-05-04 04:43 27.61927 -80.13498 30090 ft 380 kts 172°
2026-05-04 04:44 27.59439 -80.12510 29667 ft 378 kts 171°
2026-05-04 04:44 27.56978 -80.11502 29252 ft 375 kts 171°
2026-05-04 04:44 27.54566 -80.10501 28847 ft 372 kts 170°
2026-05-04 04:44 27.52140 -80.09486 28453 ft 370 kts 170°
2026-05-04 04:45 27.49732 -80.08483 28057 ft 368 kts 170°
2026-05-04 04:45 27.47335 -80.07490 27675 ft 365 kts 170°
2026-05-04 04:45 27.44959 -80.06509 27283 ft 362 kts 170°
2026-05-04 04:47 27.31135 -80.01490 25075 ft 334 kts 176°
2026-05-04 04:47 27.28893 -80.00847 24697 ft 331 kts 176°
2026-05-04 04:47 27.26667 -80.00201 24311 ft 329 kts 175°
2026-05-04 04:47 27.24459 -79.99525 23948 ft 330 kts 174°
2026-05-04 04:48 27.22260 -79.98772 23570 ft 330 kts 172°
2026-05-04 04:49 27.13584 -79.95570 22033 ft 325 kts 171°
2026-05-04 04:49 27.11437 -79.94785 21656 ft 323 kts 171°
2026-05-04 04:49 27.09298 -79.94011 21273 ft 322 kts 171°
2026-05-04 04:49 27.07170 -79.93245 20898 ft 320 kts 172°
2026-05-04 04:50 27.05058 -79.92454 20523 ft 320 kts 170°
2026-05-04 04:50 27.02985 -79.91626 20152 ft 319 kts 169°
2026-05-04 04:50 27.00905 -79.90772 19778 ft 318 kts 169°
2026-05-04 04:50 26.98837 -79.89917 19405 ft 316 kts 169°
2026-05-04 04:51 26.96774 -79.89070 19033 ft 314 kts 169°
2026-05-04 04:51 26.94726 -79.88236 18663 ft 312 kts 169°
2026-05-04 04:51 26.92687 -79.87410 18306 ft 311 kts 169°
2026-05-04 04:51 26.90653 -79.86591 17943 ft 310 kts 169°
2026-05-04 04:52 26.88621 -79.85773 17544 ft 309 kts 168°
2026-05-04 04:52 26.86628 -79.84972 17168 ft 308 kts 168°
2026-05-04 04:52 26.84613 -79.84161 16802 ft 306 kts 168°
2026-05-04 04:52 26.82614 -79.83356 16432 ft 305 kts 168°
2026-05-04 04:53 26.80620 -79.82552 16075 ft 303 kts 167°
2026-05-04 04:53 26.78636 -79.81751 15709 ft 302 kts 167°
2026-05-04 04:53 26.76660 -79.80954 15342 ft 301 kts 167°
2026-05-04 04:53 26.74690 -79.80162 14976 ft 300 kts 167°
2026-05-04 04:54 26.72726 -79.79401 14610 ft 296 kts 171°
2026-05-04 04:54 26.70758 -79.79013 14276 ft 287 kts 183°
2026-05-04 04:54 26.68790 -79.79079 13918 ft 280 kts 194°
2026-05-04 04:54 26.66918 -79.79558 13585 ft 274 kts 204°
2026-05-04 04:55 26.65134 -79.80288 13243 ft 272 kts 205°
2026-05-04 04:55 26.63354 -79.81018 12909 ft 272 kts 204°
2026-05-04 04:55 26.61577 -79.81739 12575 ft 271 kts 204°
2026-05-04 04:55 26.60400 -79.82216 12356 ft 271 kts 204°
2026-05-04 04:56 26.58631 -79.82935 12021 ft 270 kts 204°
2026-05-04 04:56 26.56864 -79.83655 11681 ft 269 kts 204°
2026-05-04 04:56 26.55104 -79.84375 11329 ft 268 kts 204°
2026-05-04 04:56 26.53372 -79.85144 10988 ft 267 kts 206°
2026-05-04 04:57 26.51660 -79.85949 10651 ft 266 kts 206°
2026-05-04 04:57 26.49966 -79.86757 10320 ft 263 kts 206°
2026-05-04 04:57 26.48284 -79.87562 9989 ft 263 kts 206°
2026-05-04 04:57 26.46599 -79.88365 9652 ft 264 kts 205°
2026-05-04 04:58 26.44934 -79.89152 9321 ft 262 kts 205°
2026-05-04 04:58 26.43256 -79.89951 8986 ft 262 kts 205°
2026-05-04 04:58 26.41570 -79.90751 8650 ft 261 kts 205°
2026-05-04 04:58 26.39898 -79.91538 8317 ft 259 kts 205°
2026-05-04 04:59 26.38246 -79.92336 8046 ft 260 kts 210°
2026-05-04 04:59 26.36628 -79.93372 8008 ft 274 kts 211°
2026-05-04 04:59 26.34967 -79.94439 8005 ft 276 kts 211°
2026-05-04 04:59 26.33345 -79.95531 8005 ft 276 kts 219°
2026-05-04 05:00 26.32077 -79.97120 8006 ft 275 kts 241°
2026-05-04 05:00 26.31200 -79.99017 8009 ft 275 kts 243°
2026-05-04 05:00 26.29496 -80.02809 7440 ft 272 kts 243°
2026-05-04 05:01 26.28650 -80.04690 7079 ft 271 kts 243°
2026-05-04 05:01 26.27803 -80.06569 6725 ft 270 kts 243°
2026-05-04 05:01 26.26960 -80.08432 6351 ft 268 kts 243°
2026-05-04 05:01 26.26133 -80.10263 6001 ft 268 kts 243°
2026-05-04 05:02 26.25302 -80.12109 5654 ft 266 kts 243°
2026-05-04 05:02 26.24470 -80.13951 5283 ft 265 kts 243°
2026-05-04 05:02 26.23647 -80.15766 4924 ft 265 kts 243°
2026-05-04 05:02 26.22814 -80.17608 4551 ft 265 kts 242°
2026-05-04 05:03 26.21985 -80.19440 4166 ft 265 kts 243°
2026-05-04 05:03 26.21156 -80.21273 3791 ft 265 kts 243°
2026-05-04 05:04 26.18679 -80.26739 2996 ft 265 kts 242°
2026-05-04 05:04 26.17833 -80.28572 2951 ft 265 kts 239°
2026-05-04 05:04 26.16605 -80.30052 2662 ft 259 kts 211°
2026-05-04 05:06 26.08400 -80.27725 1857 ft 150 kts 124°
2026-05-04 05:06 26.07895 -80.26716 1818 ft 149 kts 110°
2026-05-04 05:06 26.07752 -80.25563 1661 ft 152 kts 92°
2026-05-04 05:07 26.07739 -80.24396 1438 ft 151 kts 91°
2026-05-04 05:07 26.07731 -80.23248 1231 ft 150 kts 91°
2026-05-04 05:07 26.07723 -80.22092 1025 ft 148 kts 89°
2026-05-04 05:09 26.07625 -80.14608 18 ft 15 kts 133°
2026-05-04 05:09 26.07575 -80.14585 17 ft 0 kts 168°
2026-05-04 05:12 26.07566 -80.14577 17 ft 4 kts 135°
2026-05-04 05:12 26.07555 -80.14533 17 ft 10 kts 122°
2026-05-04 05:13 26.07489 -80.14555 16 ft 17 kts 259°
2026-05-04 05:13 26.07490 -80.14697 16 ft 18 kts 270°
2026-05-04 05:13 26.07445 -80.14814 16 ft 17 kts 225°
2026-05-04 05:13 26.07347 -80.14853 16 ft 15 kts 180°
2026-05-04 05:14 26.07245 -80.14854 16 ft 15 kts 180°
2026-05-04 05:14 26.07136 -80.14855 16 ft 16 kts 180°
2026-05-04 05:14 26.07039 -80.14808 16 ft 16 kts 134°
2026-05-04 05:14 26.06959 -80.14726 16 ft 15 kts 138°
2026-05-04 05:15 26.06877 -80.14649 16 ft 15 kts 141°
2026-05-04 05:15 26.06818 -80.14560 16 ft 14 kts 93°
2026-05-04 05:15 26.06818 -80.14451 16 ft 14 kts 90°
2026-05-04 05:15 26.06818 -80.14344 16 ft 14 kts 90°
2026-05-04 05:16 26.06816 -80.14244 16 ft 12 kts 90°
2026-05-04 05:16 26.06816 -80.14156 16 ft 10 kts 88°
2026-05-04 05:16 26.06844 -80.14095 18 ft 8 kts 35°
2026-05-04 05:16 26.06892 -80.14088 16 ft 5 kts 341°
2026-05-04 05:17 26.06909 -80.14112 16 ft 3 kts 297°
2026-05-04 05:17 26.06916 -80.14125 16 ft 1 kts 300°
2026-05-04 05:17 26.06916 -80.14126 16 ft 0 kts 299°
2026-05-04 05:17 26.06922 -80.14137 18 ft 3 kts 298°
2026-05-04 05:18 26.06924 -80.14141 16 ft 0 kts 298°